Regional Weather Roundup
Issued by NWS

Home | Current Version | Previous Version | Graphics & Text | Print | Product List | Glossary On
Versions: 1 2 3 4 5 6 7 8 9 10 11 12 13 14 15 16 17 18 19 20 21 22 23 24 25 26 27 28 29 30 31 32 33 34 35 36 37 38 39 40 41 42 43 44 45 46 47 48 49 50
000
ASUS43 KMPX 210301
RWRMN
WEATHER ROUNDUP FOR MINNESOTA
NATIONAL WEATHER SERVICE TWIN CITIES/CHANHASSEN MN
900 PM CST SAT DEC 20 2014


NOTE: "FAIR" INDICATES FEW OR NO CLOUDS BELOW 12,000 FEET WITH NO
SIGNIFICANT WEATHER AND/OR OBSTRUCTIONS TO VISIBILITY. N/A MEANS
CURRENT SKY AND/OR WEATHER CONDITIONS ARE NOT AVAILABLE.

MNZ060>063-068>070-210400-
   Twin Cities Metro

CITY           SKY/WX    TMP DP  RH WIND       PRES   REMARKS
TWIN CITIES    CLOUDY    31  27  85 S13       30.10F WCI  21
ST PAUL        CLOUDY    31  27  85 S16G24    30.11F WCI  20
CRYSTAL        CLOUDY    32  27  81 S17G23    30.09S WCI  21
BLAINE         CLOUDY    34  30  86 S12G17    30.08F WCI  25
LAKEVILLE      CLOUDY    28  27  93 S7        30.09F WCI  21
EDEN PRAIRIE   CLOUDY    31  26  82 S9        30.09S WCI  23
SOUTH ST PAUL  CLOUDY    32  28  85 S9G18     30.10F WCI  24
LAKE ELMO      CLOUDY    32  30  93 S10       30.11S WCI  24
$$
MNZ001>005-007-008-013>017-022>024-027-028-210400-
   Northwest Minnesota

CITY           SKY/WX    TMP DP  RH WIND       PRES   REMARKS
BEMIDJI        CLOUDY    28  27  96 S13       29.94F FOG     WCI  18
HALLOCK        CLOUDY    30  28  93 CALM      29.88F FOG
ROSEAU         CLOUDY    30  27  86 S12       29.90F FOG     WCI  21
WARROAD        CLOUDY    28  27  93 S9        29.92F FOG     WCI  20
THIEF RVR FALL CLOUDY    30  28  93 S14       29.90F WCI  20
CROOKSTON      LGT SNOW  30  30 100 S17       29.91F WCI  18
FOSSTON        CLOUDY    28  27  93 S12       29.93R FOG     WCI  18
DETROIT LAKES  CLOUDY    32  30  93 S18G25    29.94R FOG     WCI  20
MOORHEAD       CLOUDY    32  32 100 S20G25    29.93F FOG     WCI  20
PARK RAPIDS    CLOUDY    29  28  96 S10       29.95F FOG     WCI  20
MAHNOMEN       CLOUDY    30  28  94 S14       29.92S FOG     WCI  19
$$
MNZ006-009>011-018-025>026-210400-
   North Central Minnesota

CITY           SKY/WX    TMP DP  RH WIND       PRES   REMARKS
BAUDETTE       CLOUDY    29  27  92 S7        29.93F FOG     WCI  22
FLAG ISLAND    CLOUDY    28  27  93 S14       29.91F WCI  17
INTL FALLS     CLOUDY    30  27  88 S5        29.97S WCI  25
WASKISH        CLOUDY    30  28  93 CALM      29.95S
BIG FORK       MIX PCPN  28  27  93 S7G18     29.98F WCI  21
LONGVILLE      CLOUDY    28  27  93 S9G16     29.99S WCI  20
GRAND RAPIDS   CLOUDY    27  25  93 S17G24    30.00S WCI  14
CRANE LAKE     CLOUDY    28  27  93 S7        30.03S FOG     WCI  21
ORR            CLOUDY    28  27  93 S8        29.98S FOG     WCI  20
COOK           CLOUDY    28  27  93 S12       30.01S FOG     WCI  18
WALKER         CLOUDY    28  27  95 S9        29.97S FOG     WCI  19
$$
MNZ012-019>021-037-210400-
   Northeast Minnesota

CITY           SKY/WX    TMP DP  RH WIND       PRES   REMARKS
DULUTH         CLOUDY    30  25  81 SW15      30.04S WCI  19
ELY            CLOUDY    28  27  93 S8        30.02S WCI  20
HIBBING        CLOUDY    29  26  89 S6        30.01F WCI  23
EVELETH        CLOUDY    30  28  93 S8G18     30.03S FOG     WCI  23
DULUTH HARBOR  CLOUDY    34  28  80 S13G20    30.10S WCI  25
SILVER BAY     CLOUDY    32  28  86 S9        30.06R WCI  24
GRAND MARAIS     N/A     35  29  78 S17       30.10F WCI  25
G MARAIS ARPRT CLOUDY    27  25  93 S6        30.04F FOG     WCI  20
$$
MNZ029>031-032-039>041-046>048-054>057-064-210400-
   West Central Minnesota

CITY           SKY/WX    TMP DP  RH WIND       PRES   REMARKS
FERGUS FALLS   CLOUDY    30  28  93 S18G24    29.98F FOG     WCI  18
WHEATON        CLOUDY    28  27  93 SE10G20   29.97S FOG     WCI  19
MORRIS         CLOUDY    30  28  93 S16       29.96F FOG     WCI  19
ALEXANDRIA     CLOUDY    29  27  92 S18       29.98F WCI  16
ELBOW LAKE     CLOUDY    30  29  96 S21       29.96S FOG     WCI  17
WADENA         CLOUDY    28  27  93 SE15      29.96F FOG     WCI  17
GLENWOOD       CLOUDY    28  28 100 S18       30.00S FOG     WCI  16
APPLETON       CLOUDY    32  28  86 S15       29.98F WCI  22
BENSON         CLOUDY    30  28  93 S15       29.99F WCI  19
ORTONVILLE     CLOUDY    30  27  86 S13       29.95F FOG     WCI  20
MADISON        CLOUDY    34  32  93 S12       29.98S FOG     WCI  25
WILLMAR        CLOUDY    30  28  93 S8G20     30.03F WCI  23
$$
MNZ033>034-036-042>043-049>051-058-059-210400-
   Central Minnesota

CITY           SKY/WX    TMP DP  RH WIND       PRES   REMARKS
ST CLOUD       CLOUDY    31  25  78 S10       30.05F WCI  22
SAUK CENTRE    CLOUDY    29  27  94 SE15      30.01F WCI  17
PAYNESVILLE    CLOUDY    28  27  96 E9G18     30.04S WCI  19
AITKIN         CLOUDY    30  25  80 S7G16     30.01F WCI  23
PINE RIVER     CLOUDY    28  28 100 S10       30.03S WCI  19
BRAINERD       CLOUDY    27  25  92 S17       30.02F WCI  14
STAPLES        CLOUDY    27  27 100 S12       30.00S WCI  16
LONG PRAIRIE   CLOUDY    28  27  93 SE16      30.01F WCI  17
LITTLE FALLS   CLOUDY    30  27  86 S9G17     30.04S WCI  22
LITCHFIELD     CLOUDY    30  30 100 S6        30.05S WCI  24
BUFFALO        CLOUDY    30  26  84 S6        30.08F WCI  24
MAPLE LAKE     CLOUDY    31  28  90 S10G18    30.07S WCI  22
$$
MNZ037-044-045-052-053-210400-
   East Central Minnesota

CITY           SKY/WX    TMP DP  RH WIND       PRES   REMARKS
PRINCETON      CLOUDY    30  28  93 S9        30.07S WCI  22
MORA           CLOUDY    32  27  80 S8        30.08F WCI  25
CAMBRIDGE      CLOUDY    34  25  69 S12       30.06F WCI  25
RUSH CITY      CLOUDY    31  28  85 S12       30.08F WCI  22
MOOSE LAKE     CLOUDY    32  28  86 S10G17    30.04S WCI  24
HINCKLEY       CLOUDY    32  30  93 S10G18    30.08S WCI  24
CLOQUET        CLOUDY    28  27  93 S10G17    30.04F FOG     WCI  19
MCGREGOR       CLOUDY    30  28  93 S12G18    30.04S WCI  21
$$
MNZ071>073-080-081-089-090-097-098-210400-
   Southwest Minnesota

CITY           SKY/WX    TMP DP  RH WIND       PRES   REMARKS
MONTEVIDEO     CLOUDY    30  30 100 S9G16     30.01F WCI  22
GRANITE FALLS  CLOUDY    31  29  92 SE13      30.02F WCI  21
CANBY          CLOUDY    31  30  95 S9        29.99S FOG     WCI  23
MARSHALL       CLOUDY    30  27  86 S15       29.99F WCI  19
REDWOOD FALLS  CLOUDY    32  28  85 S15       30.03F WCI  22
OLIVIA         CLOUDY    32  30  93 S14       30.03S WCI  22
PIPESTONE      FOG       28  28 100 S5        29.96F VSB 3/4 WCI  23
WINDOM         CLOUDY    30  30 100 S9G17     30.02S WCI  22
WORTHINGTON    CLOUDY    30  28  93 S14       30.01S WCI  20
JACKSON        CLOUDY    32  30  93 S13       30.03F WCI  22
TRACY          CLOUDY    32  30  94 S13       30.00S WCI  22
SLAYTON        CLOUDY    29  29 100 S7        29.99F FOG     WCI  22
$$
MNZ065>067-074>077-082>085-091>093-210400-
   South Central Minnesota

CITY           SKY/WX    TMP DP  RH WIND       PRES   REMARKS
MANKATO        CLOUDY    30  27  86 S9        30.08S WCI  22
NEW ULM        CLOUDY    32  30  93 S13G20    30.05F WCI  22
ST JAMES       CLOUDY    34  30  86 S16       30.06S WCI  23
FAIRMONT       CLOUDY    32  28  86 S13       30.05F WCI  22
GLENCOE        CLOUDY    32  30  92 SE8       30.07S WCI  24
FARIBAULT      CLOUDY    30  27  86 SE7       30.09F WCI  23
OWATONNA       CLOUDY    30  27  86 SE10      30.09F WCI  21
WASECA         CLOUDY    32  30  93 SE8       30.10S WCI  25
ALBERT LEA     CLOUDY    30  28  93 S9        30.09S FOG     WCI  22
$$
MNZ078>079-086>088-094>096-210400-
   Southeast Minnesota

CITY           SKY/WX    TMP DP  RH WIND       PRES   REMARKS
ROCHESTER      CLOUDY    30  27  88 S8        30.11F WCI  22
RED WING       CLOUDY    34  28  80 S6        30.12S WCI  29
STANTON        CLOUDY    32  28  83 S9        30.10S WCI  24
DODGE CENTER   CLOUDY    30  28  93 S7        30.10S WCI  23
WINONA         CLOUDY    32  30  93 SE6       30.17S FOG     WCI  26
AUSTIN         CLOUDY    30  28  93 S6        30.10S WCI  24
PRESTON        CLOUDY    30  28  94 S10       30.12F FOG     WCI  21
$$
ABBREVIATIONS USED IN REMARKS
   TC - TEMPERATURES IN CELSIUS
  WCI - WIND CHILL INDEX
   HX - HEAT INDEX
  VSB - VISIBILITY
$$



USA.gov is the U.S. government's official web portal to all federal, state and local government web resources and services.